Regional Weather Roundup
Issued by NWS

Home | Current Version | Previous Version | Text Only | Print | Product List | Glossary Off
Versions: 1 2 3 4 5 6 7 8 9 10 11 12 13 14 15 16 17 18 19 20 21 22 23 24 25 26 27 28 29 30 31 32 33 34 35 36 37 38 39 40 41 42 43 44 45 46 47 48 49 50

133
ASUS45 KBOU 262207
RWRCO

WEATHER ROUNDUP FOR COLORADO
NATIONAL WEATHER SERVICE DENVER/BOULDER CO
400 PM MDT SUN MAR 26 2017

NOTE: "FAIR" INDICATES FEW OR NO CLOUDS BELOW 12000 FEET WITH NO
SIGNIFICANT WEATHER AND/OR OBSTRUCTIONS TO VISIBILITY.

COZ001>005-013-030-031-262300-
...NORTHWEST COLORADO...

CITY           SKY/WX    TMP DP  RH WIND       PRES   REMARKS
CRAIG          PTSUNNY   49  21  33 W7        29.97F
HAYDEN         FAIR      45  25  45 W9        29.98S
MEEKER         PTSUNNY   50  24  36 W5        29.96F
MOUNT WERNER   NOT AVBL
STEAMBOAT SPGS CLOUDY    41  30  64 CALM      29.99S
WALDEN         NOT AVBL
$$

COZ006>008-011-262300-
...WEST CENTRAL VALLEYS...

CITY           SKY/WX    TMP DP  RH WIND       PRES   REMARKS
GRAND JUNCTION FAIR      61  28  28 NW7       29.92F
MONTROSE       FAIR      54  33  45 S12G18    29.97F
EAGLE          PTSUNNY   52  28  40 E5        29.95F
RIFLE          PTSUNNY   57  24  28 VRB7      29.94F
DELTA          FAIR      64  25  22 W8G20     29.93R
NUCLA          FAIR      55  28  35 SW5       30.00F
$$

COZ017>023-064>068-262300-
...SOUTHWEST COLORADO...

CITY           SKY/WX    TMP DP  RH WIND       PRES   REMARKS
DURANGO        PTSUNNY   57  25  29 SW18      29.93S
CORTEZ         FAIR      58  33  39 W10G16    29.96F
PAGOSA SPRINGS CLOUDY    48  30  49 E6        29.99S
TELLURIDE      CLOUDY    40  26  57 W8        30.06R
WOLF CREEK PAS FOG       27  27 100 SW14G20   30.12R VSB<1/4 WCI  15
$$

COZ009-010-012-014-032>034-037-058>063-262300-
...CENTRAL COLORADO...

CITY           SKY/WX    TMP DP  RH WIND       PRES   REMARKS
ASPEN          PTSUNNY   49  24  37 N8G16     29.95F
BUENA VISTA    PTSUNNY   54  15  21 NW14G22   29.89S
COPPER MTN     CLOUDY    32  23  69 NW13      30.05R WCI  22
BERTHOUD PASS  CLOUDY    21  10  63 N13G24    30.04R WCI   9
COTTONWOOD PAS FAIR      48  10  21 SW12G18   29.96S
GUNNISON       NOT AVBL
KREMMLING      CLOUDY    52  30  43 N10G18    29.96S
LEADVILLE      PTSUNNY   39  16  39 W14G21    29.98S
MONARCH PASS   CLOUDY    30  23  74 SW22G38   30.15R WCI  17
SALIDA         FAIR      55  24  29 W20G28    29.96F
SUNLIGHT       PTSUNNY   30  23  74 W6        30.09S WCI  24
WILKERSON PASS PTSUNNY   32  27  80 NE5       30.03S HAZE    WCI  27
$$

COZ069>075-262300-
...SAN LUIS VALLEY/SANGRE DE CRISTO MOUNTAINS...

CITY           SKY/WX    TMP DP  RH WIND       PRES   REMARKS
ALAMOSA        FAIR      55  23  28 VRB3      29.89F
LA VETA PASS   NOT AVBL
SAGUACHE       FAIR      54  21  28 NW16G25   29.93R
$$

COZ035-036-038>040-262300-
...NORTHERN COLORADO FRONT RANGE...

CITY           SKY/WX    TMP DP  RH WIND       PRES   REMARKS
DENVER INTL AP PTSUNNY   51  33  50 NE8       29.92R
DMNS CITY PARK   N/A     49  40  71 N7G13     29.92S
AURORA         LGT RAIN  49  35  59 NE12      29.93R
FRONT RANGE AP PTSUNNY   52  36  54 N9G18     29.93R
ERIE MUNI ARPT LGT RAIN  49  39  70 N6        29.93S
BOULDER MUN AP LGT RAIN  45  43  93 N5        29.94R
CENTENNIAL     CLOUDY    49  34  56 N14       29.92R
BROOMFIELD     CLOUDY    46  41  81 NW9       29.94R
FORT COLLINS   LGT RAIN  50  41  71 E6        29.93S
LONGMONT       CLOUDY    50  41  70 NW3       29.95S
$$

COZ041-046-047-076>085-087-088-262300-
...PIKES PEAK/PALMER DIVIDE AND SOUTHERN FOOTHILLS...

CITY           SKY/WX    TMP DP  RH WIND       PRES   REMARKS
COLO. SPRINGS  FAIR      54  30  40 N18       29.89F
A. F. ACADEMY  FAIR      50  31  47 N21       29.90S
SCHRIEVER AFB  FAIR      51  30  45 N16G28    29.91R
ELLICOTT         N/A    N/A N/A N/A NE20      29.89S
FALCON         CLOUDY    48  32  52 N14G22    29.93S
FORT CARSON    CLOUDY    54  29  38 N12G22    29.88R
LIMON          CLOUDY    48  37  65 NE12      29.91R
MONUMENT HILL  CLOUDY    43  32  65 N13       29.95R
TRINIDAD       PTSUNNY   52  36  54 N14       29.90R
$$

COZ042>045-048>051-090-091-262300-
...NORTHEAST COLORADO...

CITY           SKY/WX    TMP DP  RH WIND       PRES   REMARKS
GREELEY ARPT   PTSUNNY   53  35  50 NE12G17   29.92S
AKRON          CLOUDY    52  35  52 N10       29.90R
BURLINGTON     CLOUDY    48  40  73 N10       29.89R
WRAY           NOT AVBL
STERLING       CLOUDY    54  37  54 CALM      29.88S
HOLYOKE        FAIR      59  37  44 N8        29.88S
FORT MORGAN    CLOUDY    50  32  50 W6        29.92R
$$

COZ086-089-092>099-262300-
...SOUTHEAST COLORADO...

CITY           SKY/WX    TMP DP  RH WIND       PRES   REMARKS
PUEBLO         FAIR      60  31  33 NE16G29   29.86S
LA JUNTA       PTSUNNY   51  39  63 NE14G21   29.89R
LAMAR          CLOUDY    44  37  76 N10       29.88R
SPRINGFIELD      N/A     44  36  73 NW18      29.86R
$$




USA.gov is the U.S. government's official web portal to all federal, state and local government web resources and services.